AC0ID-13 Weather Reports


Display with metric or nautical units.
time (UTC)temp
F
wind
direction
speed
MPH
gust
MPH
rain 1hr
in
rain 24hr
in
rain mn
in
humidity
%
barometer
mb
20260831225507 86 234 1.0 5.0 0.00 0.00 0.00 70 1012.1
20260831225006 86 257 1.0 4.0 0.00 0.00 0.00 70 1012.1
20260831224505 86 329 0.0 7.0 0.00 0.00 0.00 69 1012.1
20260831224004 87 232 1.0 7.0 0.00 0.00 0.00 69 1012.2
20260831223503 87 242 0.0 5.0 0.00 0.00 0.00 69 1012.1
20260831223008 87 176 0.0 4.0 0.00 0.00 0.00 69 1012.0
20260831222506 87 240 1.0 7.0 0.00 0.00 0.00 68 1012.1
20260831222009 87 139 2.0 7.0 0.00 0.00 0.00 68 1012.1
20260831221509 88 257 2.0 6.0 0.00 0.00 0.00 66 1012.1
20260831221011 88 107 0.0 7.0 0.00 0.00 0.00 67 1012.0
20260831220510 87 194 0.0 7.0 0.00 0.00 0.00 67 1012.0
20260831220011 87 178 0.0 3.0 0.00 0.00 0.00 66 1012.0
20260831215511 88 154 1.0 5.0 0.00 0.00 0.00 66 1012.0
20260831215013 88 201 2.0 5.0 0.00 0.00 0.00 66 1012.0
20260831214527 88 266 1.0 6.0 0.00 0.00 0.00 66 1012.0
20260831214006 88 184 1.0 6.0 0.00 0.00 0.00 67 1011.9
20260831213512 88 172 1.0 6.0 0.00 0.00 0.00 68 1011.9
20260831213028 88 254 2.0 7.0 0.00 0.00 0.00 68 1011.9
20260831212504 88 201 2.0 7.0 0.00 0.00 0.00 67 1011.8
20260831212006 88 225 2.0 6.0 0.00 0.00 0.00 67 1011.8
20260831211511 88 195 1.0 5.0 0.00 0.00 0.00 67 1011.9
20260831211006 88 138 2.0 5.0 0.00 0.00 0.00 67 1011.8
20260831210506 88 36 1.0 3.0 0.00 0.00 0.00 68 1011.8
20260831210019 87 53 1.0 4.0 0.00 0.00 0.00 68 1011.8
20260831205510 87 258 0.0 4.0 0.00 0.00 0.00 70 1011.9
20260831205008 87 150 1.0 3.0 0.00 0.00 0.00 70 1011.8
20260831204516 86 182 0.0 3.0 0.00 0.00 0.00 71 1011.8
20260831204014 85 302 0.0 3.0 0.00 0.00 0.00 72 1011.7
20260831203516 84 61 0.0 2.0 0.00 0.00 0.00 74 1011.6
20260831203012 84 254 0.0 2.0 0.00 0.00 0.00 73 1011.7
20260831202510 84 172 0.0 2.0 0.00 0.00 0.00 73 1011.8
20260831202014 84 172 0.0 2.0 0.00 0.00 0.00 74 1011.8
20260831201532 84 189 0.0 2.0 0.00 0.00 0.00 73 1011.7
20260831201008 84 336 0.0 2.0 0.00 0.00 0.00 73 1011.7
20260831200506 83 316 0.0 2.0 0.00 0.00 0.00 75 1011.5
20260831200014 83 9 0.0 2.0 0.00 0.00 0.00 76 1011.3
20260831195507 83 320 0.0 4.0 0.00 0.00 0.00 75 1011.3
20260831195013 83 352 1.0 5.0 0.00 0.00 0.00 75 1011.2
20260831194520 83 343 1.0 5.0 0.00 0.00 0.00 75 1011.2
20260831194013 83 324 1.0 3.0 0.00 0.00 0.00 75 1011.4
20260831193510 83 320 0.0 3.0 0.00 0.00 0.00 76 1011.4
20260831193032 83 44 0.0 3.0 0.00 0.00 0.00 76 1011.4
20260831192516 83 325 0.0 3.0 0.00 0.00 0.00 76 1011.5
20260831192011 83 332 0.0 4.0 0.00 0.00 0.00 76 1011.4
20260831191518 83 39 0.0 4.0 0.00 0.00 0.00 76 1011.7
20260831191015 83 11 0.0 4.0 0.00 0.00 0.00 75 1011.8
20260831190516 83 352 1.0 5.0 0.00 0.00 0.00 76 1011.8
20260831190017 83 310 1.0 8.0 0.00 0.00 0.00 75 1011.6
20260831185509 83 11 1.0 8.0 0.00 0.00 0.00 75 1011.5
20260831185011 84 345 0.0 5.0 0.00 0.00 0.00 74 1011.4
20260831184514 84 325 1.0 5.0 0.00 0.00 0.00 73 1011.5
20260831184011 84 339 0.0 5.0 0.00 0.00 0.00 72 1011.4
20260831183513 84 326 0.0 3.0 0.00 0.00 0.00 73 1011.4
20260831183035 85 344 0.0 3.0 0.00 0.00 0.00 72 1011.3
20260831182511 85 15 0.0 3.0 0.00 0.00 0.00 74 1011.3
20260831182014 85 322 1.0 4.0 0.00 0.00 0.00 72 1011.3
20260831181527 85 322 0.0 4.0 0.00 0.00 0.00 71 1011.4
20260831181016 86 323 0.0 3.0 0.00 0.00 0.00 70 1011.3
20260831180513 86 350 0.0 3.0 0.00 0.00 0.00 70 1011.3
20260831180027 87 327 1.0 3.0 0.00 0.00 0.00 69 1011.3
20260831175514 88 346 0.0 3.0 0.00 0.00 0.00 67 1011.4
20260831175008 88 323 0.0 3.0 0.00 0.00 0.00 68 1011.5
20260831174524 88 148 0.0 2.0 0.00 0.00 0.00 67 1011.5
20260831174016 87 20 0.0 2.0 0.00 0.00 0.00 67 1011.5
20260831173510 87 90 0.0 3.0 0.00 0.00 0.00 70 1011.5
20260831173018 86 168 0.0 3.0 0.00 0.00 0.00 69 1011.5
20260831172511 86 142 1.0 3.0 0.00 0.00 0.00 70 1011.6
20260831172014 86 142 1.0 3.0 0.00 0.00 0.00 69 1011.7
20260831171526 87 139 0.0 2.0 0.00 0.00 0.00 68 1011.7
20260831171002 87 22 0.0 4.0 0.00 0.00 0.00 69 1011.8
20260831170503 87 229 1.0 4.0 0.00 0.00 0.00 67 1011.9
20260831170015 86 22 1.0 4.0 0.00 0.00 0.00 70 1011.9
20260831165504 85 340 1.0 5.0 0.00 0.00 0.00 71 1012.0
20260831165003 85 346 1.0 5.0 0.00 0.00 0.00 71 1012.0
20260831164516 85 53 1.0 4.0 0.00 0.00 0.00 72 1012.0
20260831164001 84 343 0.0 3.0 0.00 0.00 0.00 73 1011.9
20260831163503 84 231 0.0 3.0 0.00 0.00 0.00 73 1011.9
20260831163003 84 229 0.0 4.0 0.00 0.00 0.00 73 1011.9
20260831162505 83 333 1.0 4.0 0.00 0.00 0.00 72 1011.8
20260831162003 84 310 1.0 3.0 0.00 0.00 0.00 72 1011.7
20260831161502 84 161 1.0 3.0 0.00 0.00 0.00 74 1011.8
20260831161003 83 352 0.0 3.0 0.00 0.00 0.00 73 1011.7
20260831160502 84 57 0.0 5.0 0.00 0.00 0.00 73 1011.7
20260831160004 84 206 0.0 5.0 0.00 0.00 0.00 74 1011.5
20260831155503 83 310 0.0 2.0 0.00 0.00 0.00 74 1011.5
20260831155003 83 200 0.0 3.0 0.00 0.00 0.00 72 1011.5
20260831154527 84 134 1.0 4.0 0.00 0.00 0.00 72 1011.5
20260831154002 83 37 0.0 5.0 0.00 0.00 0.00 73 1011.5
20260831153506 83 185 1.0 5.0 0.00 0.00 0.00 73 1011.5
20260831153010 82 219 0.0 4.0 0.00 0.00 0.00 74 1011.4
20260831152503 82 271 1.0 4.0 0.00 0.00 0.00 74 1011.3
20260831152008 83 190 1.0 4.0 0.00 0.00 0.00 73 1011.3
20260831151504 82 237 1.0 4.0 0.00 0.00 0.00 75 1011.2
20260831151003 81 293 0.0 3.0 0.00 0.00 0.00 78 1011.1
20260831150503 81 184 0.0 2.0 0.00 0.00 0.00 77 1010.9
20260831150004 81 333 0.0 2.0 0.00 0.00 0.00 79 1010.9
20260831145503 81 198 0.0 3.0 0.00 0.00 0.00 78 1010.8
20260831145003 80 207 0.0 3.0 0.00 0.00 0.00 78 1010.7
20260831144503 80 245 1.0 7.0 0.00 0.00 0.00 79 1010.8
20260831144006 79 111 2.0 7.0 0.00 0.00 0.00 79 1010.8
20260831143503 79 239 2.0 7.0 0.00 0.00 0.00 80 1010.8
20260831143005 79 182 0.0 4.0 0.00 0.00 0.00 81 1010.7
20260831142508 79 209 2.0 4.0 0.00 0.00 0.00 81 1010.7
20260831142011 78 165 2.0 4.0 0.00 0.00 0.00 82 1010.6
20260831141502 78 204 0.0 4.0 0.00 0.00 0.00 82 1010.6
20260831141006 78 234 1.0 4.0 0.00 0.00 0.00 83 1010.6
20260831140507 77 246 1.0 4.0 0.00 0.00 0.00 83 1010.6
20260831140003 77 241 1.0 4.0 0.00 0.00 0.00 84 1010.5
20260831135505 76 257 1.0 4.0 0.00 0.00 0.00 84 1010.4
20260831135003 76 249 1.0 5.0 0.00 0.00 0.00 85 1010.4
20260831134503 76 197 1.0 5.0 0.00 0.00 0.00 85 1010.4
20260831134006 75 243 0.0 4.0 0.00 0.00 0.00 87 1010.3
20260831133502 74 155 1.0 5.0 0.00 0.00 0.00 87 1010.3
20260831133022 74 225 0.0 5.0 0.00 0.00 0.00 88 1010.2
20260831132503 73 155 2.0 5.0 0.00 0.00 0.00 89 1010.2
20260831132001 73 212 1.0 4.0 0.00 0.00 0.00 90 1010.1
20260831131508 72 230 1.0 4.0 0.00 0.00 0.00 90 1010.0
20260831131012 72 237 0.0 4.0 0.00 0.00 0.00 90 1009.9
20260831130501 72 254 0.0 6.0 0.00 0.00 0.00 91 1009.8
20260831130008 72 179 0.0 6.0 0.00 0.00 0.00 91 1009.8
20260831125508 71 237 0.0 4.0 0.00 0.00 0.00 91 1009.9
20260831125016 71 266 1.0 4.0 0.00 0.00 0.00 91 1010.0
20260831124503 71 254 0.0 4.0 0.00 0.00 0.00 92 1010.0
20260831124002 71 129 0.0 4.0 0.00 0.00 0.00 92 1009.9
20260831123502 71 219 0.0 3.0 0.00 0.00 0.00 92 1009.8
20260831123008 71 235 0.0 3.0 0.00 0.00 0.00 91 1009.8
20260831122504 71 265 0.0 2.0 0.00 0.00 0.00 91 1009.7
20260831122005 71 219 0.0 2.0 0.00 0.00 0.00 91 1009.6
20260831121508 71 215 0.0 2.0 0.00 0.00 0.00 91 1009.5
20260831121003 71 219 0.0 1.0 0.00 0.00 0.00 91 1009.4
20260831120506 71 219 0.0 2.0 0.00 0.00 0.00 91 1009.4
20260831120012 71 250 0.0 3.0 0.00 0.00 0.00 91 1009.3
20260831115509 71 232 0.0 3.0 0.00 0.00 0.00 91 1009.3
20260831115005 71 241 0.0 3.0 0.00 0.00 0.00 91 1009.3
20260831114517 71 288 0.0 2.0 0.00 0.00 0.00 91 1009.3
20260831114014 71 238 0.0 2.0 0.00 0.00 0.00 91 1009.3
20260831113503 71 256 0.0 1.0 0.00 0.00 0.00 91 1009.0
20260831113010 71 256 0.0 1.0 0.00 0.00 0.00 91 1009.1
20260831112503 71 256 0.0 1.0 0.00 0.00 0.00 91 1009.2
20260831112003 71 216 0.0 0.0 0.00 0.00 0.00 91 1009.2
20260831111507 71 176 0.0 0.0 0.00 0.00 0.00 91 1009.1
20260831111003 71 176 0.0 2.0 0.00 0.00 0.00 91 1009.2
20260831110503 71 176 0.0 3.0 0.00 0.00 0.00 91 1009.2
20260831110006 71 236 0.0 3.0 0.00 0.00 0.00 91 1009.2
20260831105508 71 175 0.0 2.0 0.00 0.00 0.00 91 1009.1
20260831105008 71 258 0.0 0.0 0.00 0.00 0.00 91 1009.1
20260831104523 71 220 0.0 2.0 0.00 0.00 0.00 91 1009.1
20260831104006 71 238 0.0 2.0 0.00 0.00 0.00 91 1009.1
20260831103509 71 214 0.0 2.0 0.00 0.00 0.00 91 1009.1
20260831103023 71 232 0.0 3.0 0.00 0.00 0.00 91 1009.2
20260831102518 71 250 0.0 4.0 0.00 0.00 0.00 91 1009.3
20260831102008 71 169 0.0 4.0 0.00 0.00 0.00 91 1009.2
20260831101518 71 244 0.0 3.0 0.00 0.00 0.00 90 1009.3
20260831101003 71 251 0.0 1.0 0.00 0.00 0.00 90 1009.2
20260831100503 71 263 0.0 2.0 0.00 0.00 0.00 90 1009.3
20260831100014 71 232 0.0 2.0 0.00 0.00 0.00 90 1009.2
20260831095508 71 245 0.0 1.0 0.00 0.00 0.00 90 1009.3
20260831095016 71 202 0.0 2.0 0.00 0.00 0.00 90 1009.2
20260831094513 72 202 0.0 2.0 0.00 0.00 0.00 90 1009.3
20260831094013 72 240 0.0 2.0 0.00 0.00 0.00 90 1009.3
20260831093516 72 252 0.0 2.0 0.00 0.00 0.00 90 1009.3
20260831093013 72 165 0.0 2.0 0.00 0.00 0.00 90 1009.3
20260831092509 72 187 0.0 1.0 0.00 0.00 0.00 90 1009.3
20260831092014 72 187 0.0 3.0 0.00 0.00 0.00 90 1009.2
20260831091528 72 144 0.0 3.0 0.00 0.00 0.00 90 1009.1
20260831091012 72 130 0.0 2.0 0.00 0.00 0.00 90 1009.2
20260831090510 72 252 0.0 2.0 0.00 0.00 0.00 90 1009.2
20260831090027 72 121 0.0 2.0 0.00 0.00 0.00 90 1009.2
20260831085516 72 87 0.0 2.0 0.00 0.00 0.00 90 1009.3
20260831085006 72 86 0.0 2.0 0.00 0.00 0.00 89 1009.2
20260831084515 72 86 0.0 2.0 0.00 0.00 0.00 89 1009.3
20260831084008 72 119 0.0 2.0 0.00 0.00 0.00 89 1009.2
20260831083507 72 117 0.0 2.0 0.00 0.00 0.00 89 1009.1
20260831083034 72 123 0.0 3.0 0.00 0.00 0.00 89 1009.0
20260831082513 72 123 0.0 3.0 0.00 0.00 0.00 89 1009.1
20260831082011 72 200 0.0 2.0 0.00 0.00 0.00 89 1009.0
20260831081515 72 259 0.0 1.0 0.00 0.00 0.00 89 1009.0
20260831081013 72 107 0.0 2.0 0.00 0.00 0.00 89 1009.0
20260831080514 72 142 0.0 3.0 0.00 0.00 0.00 89 1009.0
20260831080024 72 124 0.0 4.0 0.00 0.00 0.00 89 1009.0
20260831075512 72 140 0.0 4.0 0.00 0.00 0.00 89 1009.0
20260831075014 72 117 1.0 3.0 0.00 0.00 0.00 88 1009.2
20260831074530 73 125 0.0 3.0 0.00 0.00 0.00 88 1009.2
20260831074008 72 125 0.0 3.0 0.00 0.00 0.00 88 1009.3
20260831073507 73 101 0.0 2.0 0.00 0.00 0.00 88 1009.2
20260831073018 73 147 0.0 3.0 0.00 0.00 0.00 88 1009.3
20260831072511 73 121 0.0 3.0 0.00 0.00 0.00 88 1009.3
20260831072010 73 144 1.0 3.0 0.00 0.00 0.00 88 1009.3
20260831071521 73 152 1.0 3.0 0.00 0.00 0.00 88 1009.3
20260831071014 73 104 0.0 4.0 0.00 0.00 0.00 88 1009.4
20260831070508 73 120 0.0 4.0 0.00 0.00 0.00 88 1009.4
20260831070024 73 142 0.0 3.0 0.00 0.00 0.00 88 1009.4
20260831065514 73 90 0.0 3.0 0.00 0.00 0.00 88 1009.4
20260831065015 73 100 1.0 6.0 0.00 0.00 0.00 87 1009.5
20260831064519 73 121 0.0 6.0 0.00 0.00 0.00 87 1009.6
20260831064013 73 249 0.0 4.0 0.00 0.00 0.00 87 1009.5
20260831063514 73 106 1.0 4.0 0.00 0.00 0.00 87 1009.6
20260831063019 73 117 0.0 3.0 0.00 0.00 0.00 87 1009.7
20260831062513 73 96 0.0 3.0 0.00 0.00 0.00 87 1009.8
20260831062016 73 132 0.0 3.0 0.00 0.00 0.00 87 1009.8
20260831061518 73 156 0.0 4.0 0.00 0.00 0.00 86 1009.9
20260831061012 73 238 1.0 4.0 0.00 0.00 0.00 86 1010.0
20260831060512 73 126 1.0 4.0 0.00 0.00 0.00 86 1010.0
20260831060024 73 138 0.0 3.0 0.00 0.00 0.00 86 1009.9
20260831055511 73 123 0.0 6.0 0.00 0.00 0.00 86 1010.0
20260831055011 73 142 1.0 6.0 0.00 0.00 0.00 86 1010.0
20260831054531 73 142 0.0 6.0 0.00 0.00 0.00 85 1010.1
20260831054019 73 144 0.0 4.0 0.00 0.00 0.00 85 1010.1
20260831053511 73 142 1.0 4.0 0.00 0.00 0.00 85 1010.2
20260831053029 73 116 0.0 3.0 0.00 0.00 0.00 85 1010.2
20260831052521 73 115 1.0 4.0 0.00 0.00 0.00 85 1010.2
20260831052017 73 123 1.0 4.0 0.00 0.00 0.00 84 1010.2
20260831051526 73 150 0.0 4.0 0.00 0.00 0.00 84 1010.3
20260831051016 73 98 1.0 6.0 0.00 0.00 0.00 84 1010.3
20260831050517 73 114 2.0 6.0 0.00 0.00 0.00 84 1010.3
20260831050017 73 146 0.0 6.0 0.00 0.00 0.00 84 1010.3
20260831045512 73 134 0.0 6.0 0.00 0.00 0.00 84 1010.3
20260831045011 73 150 0.0 3.0 0.00 0.00 0.00 83 1010.4
20260831044524 73 117 0.0 7.0 0.00 0.00 0.00 83 1010.3
20260831044013 73 132 0.0 7.0 0.00 0.00 0.00 83 1010.3
20260831043515 73 154 1.0 7.0 0.00 0.00 0.00 83 1010.3
20260831043026 73 130 0.0 6.0 0.00 0.00 0.00 83 1010.3
20260831042513 73 125 1.0 6.0 0.00 0.00 0.00 82 1010.4
20260831042013 73 150 1.0 5.0 0.00 0.00 0.00 82 1010.3
20260831041544 73 144 2.0 4.0 0.00 0.00 0.00 82 1010.3
20260831041004 73 128 1.0 3.0 0.00 0.00 0.00 82 1010.3
20260831040504 74 184 1.0 3.0 0.00 0.00 0.00 82 1010.3
20260831040004 74 146 1.0 8.0 0.00 0.00 0.00 82 1010.3
20260831035506 74 86 3.0 8.0 0.00 0.00 0.00 82 1010.2
20260831035004 74 155 1.0 6.0 0.00 0.00 0.00 81 1010.3
20260831034503 74 62 1.0 7.0 0.00 0.00 0.00 81 1010.3
20260831034003 74 146 1.0 7.0 0.00 0.00 0.00 81 1010.3
20260831033504 74 126 0.0 5.0 0.00 0.00 0.00 81 1010.4
20260831033003 74 59 1.0 9.0 0.00 0.00 0.00 81 1010.6
20260831032503 74 126 0.0 9.0 0.00 0.00 0.00 81 1010.7
20260831032007 74 134 2.0 7.0 0.00 0.00 0.00 81 1010.8
20260831031516 74 142 0.0 7.0 0.00 0.00 0.00 80 1010.8
20260831031004 74 146 2.0 7.0 0.00 0.00 0.00 80 1010.8
20260831030507 74 115 1.0 6.0 0.00 0.00 0.00 80 1010.8
20260831030004 74 176 1.0 9.0 0.00 0.00 0.00 80 1010.9
20260831025503 74 144 3.0 9.0 0.00 0.00 0.00 80 1010.9
20260831025007 74 148 0.0 10.0 0.00 0.00 0.00 80 1010.9
20260831024510 74 214 1.0 10.0 0.00 0.00 0.00 79 1010.9
20260831024004 74 150 1.0 6.0 0.00 0.00 0.00 79 1010.9
20260831023506 74 108 1.0 6.0 0.00 0.00 0.00 79 1010.9
20260831023013 74 153 1.0 8.0 0.00 0.00 0.00 79 1011.0
20260831022504 74 147 1.0 8.0 0.00 0.00 0.00 79 1011.0
20260831022004 75 170 1.0 8.0 0.00 0.00 0.00 79 1011.0
20260831021506 75 219 3.0 8.0 0.00 0.00 0.00 78 1011.0
20260831021005 75 177 1.0 8.0 0.00 0.00 0.00 78 1011.0
20260831020503 75 119 0.0 8.0 0.00 0.00 0.00 78 1011.0
20260831020010 75 176 1.0 8.0 0.00 0.00 0.00 78 1011.0
20260831015503 75 134 1.0 7.0 0.00 0.00 0.00 77 1010.9
20260831015006 75 160 1.0 7.0 0.00 0.00 0.00 77 1011.0
20260831014509 75 117 2.0 7.0 0.00 0.00 0.00 77 1010.9
20260831014007 75 217 2.0 11.0 0.00 0.00 0.00 76 1010.8
20260831013507 75 109 1.0 11.0 0.00 0.00 0.00 76 1010.9
20260831013017 75 125 2.0 7.0 0.00 0.00 0.00 76 1010.8
20260831012506 76 109 3.0 7.0 0.00 0.00 0.00 75 1010.7
20260831012004 76 258 2.0 12.0 0.00 0.00 0.00 75 1010.6
20260831011514 76 198 4.0 12.0 0.00 0.00 0.00 75 1010.5
20260831011005 76 111 2.0 12.0 0.00 0.00 0.00 74 1010.5
20260831010506 76 137 2.0 9.0 0.00 0.00 0.00 74 1010.4
20260831010016 76 111 1.0 14.0 0.00 0.00 0.00 74 1010.4
20260831005509 77 132 2.0 14.0 0.00 0.00 0.00 73 1010.3
20260831005006 77 107 4.0 13.0 0.00 0.00 0.00 74 1010.2
20260831004508 77 119 3.0 8.0 0.00 0.00 0.00 74 1010.2
20260831004008 77 222 1.0 8.0 0.00 0.00 0.00 74 1010.4
20260831003508 77 82 1.0 8.0 0.00 0.00 0.00 73 1010.4
20260831003011 77 261 2.0 9.0 0.00 0.00 0.00 73 1010.4
20260831002508 78 147 1.0 9.0 0.00 0.00 0.00 72 1010.6
20260831002010 78 232 1.0 6.0 0.00 0.00 0.00 72 1010.7
20260831001511 78 128 1.0 8.0 0.00 0.00 0.00 72 1010.6
20260831001009 78 84 2.0 8.0 0.00 0.00 0.00 72 1010.6
20260831000509 78 116 2.0 9.0 0.00 0.00 0.00 72 1010.7
20260831000021 78 105 3.0 9.0 0.00 0.00 0.00 72 1010.7
20260830235506 78 148 2.0 9.0 0.00 0.00 0.00 71 1010.6
20260830235007 79 154 1.0 9.0 0.00 0.00 0.00 71 1010.5
20260830234515 79 223 3.0 9.0 0.00 0.00 0.00 70 1010.4
20260830234011 79 118 1.0 8.0 0.00 0.00 0.00 69 1010.5
20260830233507 79 304 3.0 8.0 0.00 0.00 0.00 69 1010.6
20260830233018 79 228 1.0 6.0 0.00 0.00 0.00 68 1010.6
20260830232508 80 145 1.0 9.0 0.00 0.00 0.00 67 1010.7
20260830232010 80 254 2.0 9.0 0.00 0.00 0.00 66 1010.7
20260830231513 81 96 1.0 8.0 0.00 0.00 0.00 65 1010.6
20260830231008 81 211 2.0 11.0 0.00 0.00 0.00 65 1010.4
20260830230511 81 144 3.0 11.0 0.00 0.00 0.00 65 1010.4
20260830230015 81 98 1.0 7.0 0.00 0.00 0.00 64 1010.3